Location: Herm
(49.4830°N, 2.4500°W)
Time: 07:09:04
(UTC+00:00)

VELOX 1 - Pass Details

Date: 03 November 2021
Orbit: 627 x 641 km, 98.3° (Epoch: 06 December)

Event Time Altitude Azimuth Distance (km) Brightness Sun altitude
Rises 17:17:06 0° 11° (N) 2,959 ? -5.8°
Reaches altitude 10° 17:19:20 10° 7° (N) 2,046 ? -6.2°
Maximum altitude 17:23:43 58° 289° (WNW) 750 ? -6.9°
Drops below altitude 10° 17:28:04 10° 211° (SSW) 2,033 ? -7.6°
Sets 17:30:17 0° 207° (SSW) 2,938 ? -7.9°
